Weather History for Abbeville, LA

Change the Weather History Date:

Wednesday, July 24, 2013

  Actual Average (KARA) Record (KARA)
Temperature  
Mean Temperature 84 °F 83 °F  
Max Temperature 93 °F 92 °F 100 °F (1948)
Min Temperature 76 °F 74 °F 67 °F (1970)
Degree Days  
Heating Degree Days 0 0  
Month to date heating degree days 0  
Since 1 June heating degree days 0  
Since 1 July heating degree days 0  
Cooling Degree Days 20 18  
Month to date cooling degree days 421  
Year to date cooling degree days 1462  
Since 1 June cooling degree days 892  
Growing Degree Days 34 (Base 50)    
Moisture  
Dew Point 72 °F    
Average Humidity 68    
Maximum Humidity 92    
Minimum Humidity 38    
Precipitation  
Precipitation 0.00 in 0.21 in 3.26 in (1999)
Month to date precipitation 5.14  
Year to date precipitation 34.27  
Sea Level Pressure  
Sea Level Pressure 29.96 in    
Wind  
Wind Speed 5 mph (SW)    
Max Wind Speed 17 mph    
Max Gust Speed 23 mph    
Visibility 10 miles    
Events      
T = Trace of Precipitation, MM = Missing Value Source: NWS Daily Summary

Daily Weather History Graph

Daily Weather History Graph

Search for Another Location

Airport:

Trip Planner

Search our weather history database for the weather conditions in past years. The results will help you decide how hot, cold, wet, or windy it might be!

Date:

Astronomy

Jul. 24, 2013 Rise Set
Actual Time 6:22 AM CDT 8:06 PM CDT
Civil Twilight 5:56 AM CDT 8:32 PM CDT
Nautical Twilight 5:24 AM CDT 9:04 PM CDT
Astronomical Twilight 4:51 AM CDT 9:37 PM CDT
Moon 9:29 PM CDT (7/24) 8:29 AM CDT (7/24)
Length of Visible Light 14h 36m
Length of Day
13h 43m
Waning Gibbous, 94% of the Moon is Illuminated
Jul 24
Waning Gibbous
Jul 29
Last Quarter
Aug 6
New
Aug 14
First Quarter
Aug 20
Full

Hourly Weather History & Observations

Time (CDT) Temp. Heat Index Dew Point Humidity Pressure Visibility Wind Dir Wind Speed Gust Speed Precip Events Conditions
12:15 AM 78.8 °F - 74.7 °F 87% 29.99 in 10.0 mi Calm Calm - N/A   Clear
12:35 AM 78.1 °F - 75.0 °F 90% 29.98 in 10.0 mi South 3.5 mph - N/A   Clear
12:55 AM 77.7 °F - 74.7 °F 90% 29.97 in 7.0 mi Calm Calm - N/A   Clear
1:15 AM 77.2 °F - 74.5 °F 91% 29.96 in 7.0 mi Calm Calm - N/A   Clear
1:35 AM 76.6 °F - 74.1 °F 92% 29.95 in 7.0 mi Calm Calm - N/A   Clear
1:55 AM 77.0 °F - 74.5 °F 92% 29.94 in 7.0 mi SW 3.5 mph - N/A   Clear
2:15 AM 77.5 °F - 75.2 °F 92% 29.94 in 10.0 mi SW 3.5 mph - N/A   Clear
2:35 AM 77.5 °F - 74.7 °F 91% 29.95 in 10.0 mi SW 3.5 mph - N/A   Clear
2:55 AM 77.7 °F - 74.5 °F 90% 29.95 in 10.0 mi SSW 3.5 mph - N/A   Clear
3:15 AM 77.9 °F - 74.7 °F 90% 29.96 in 10.0 mi Calm Calm - N/A   Scattered Clouds
3:35 AM 77.4 °F - 74.3 °F 90% 29.96 in 10.0 mi SSW 3.5 mph - N/A   Scattered Clouds
3:55 AM 77.5 °F - 74.5 °F 90% 29.96 in 10.0 mi SSW 3.5 mph - N/A   Clear
4:15 AM 77.9 °F - 74.7 °F 90% 29.96 in 10.0 mi SSW 3.5 mph - N/A   Clear
4:35 AM 78.1 °F - 74.8 °F 90% 29.96 in 10.0 mi SSW 4.6 mph - N/A   Clear
4:55 AM 78.4 °F - 75.2 °F 90% 29.96 in 10.0 mi SSW 4.6 mph - N/A   Clear
5:15 AM 78.4 °F - 75.0 °F 89% 29.97 in 10.0 mi SSW 3.5 mph - N/A   Clear
5:35 AM 78.4 °F - 74.8 °F 89% 29.98 in 10.0 mi Calm Calm - N/A   Clear
5:55 AM 78.3 °F - 74.7 °F 89% 29.98 in 10.0 mi Calm Calm - N/A   Clear
6:15 AM 77.4 °F - 74.3 °F 90% 29.98 in 7.0 mi Calm Calm - N/A   Scattered Clouds
6:35 AM 77.2 °F - 74.3 °F 91% 29.98 in 10.0 mi Calm Calm - N/A   Scattered Clouds
6:55 AM 77.0 °F - 74.1 °F 91% 29.98 in 7.0 mi Calm Calm - N/A   Clear
7:15 AM 77.4 °F - 74.7 °F 91% 29.99 in 7.0 mi Calm Calm - N/A   Clear
7:35 AM 79.0 °F - 75.6 °F 89% 30.00 in 10.0 mi Calm Calm - N/A   Scattered Clouds
7:55 AM 80.2 °F 85.7 °F 75.7 °F 86% 30.01 in 10.0 mi Calm Calm - N/A   Scattered Clouds
8:15 AM 81.7 °F 88.0 °F 74.8 °F 80% 30.02 in 10.0 mi WSW 3.5 mph - N/A   Mostly Cloudy
8:35 AM 83.3 °F 90.8 °F 74.8 °F 76% 30.01 in 10.0 mi WSW 5.8 mph - N/A   Scattered Clouds
8:55 AM 84.6 °F 91.7 °F 73.9 °F 70% 30.00 in 10.0 mi WSW 9.2 mph - N/A   Scattered Clouds
9:15 AM 85.1 °F 91.8 °F 73.2 °F 67% 30.00 in 10.0 mi WSW 8.1 mph - N/A   Clear
9:35 AM 86.0 °F 92.6 °F 72.7 °F 64% 29.99 in 10.0 mi SW 12.7 mph 16.1 mph N/A   Clear
9:55 AM 86.9 °F 93.3 °F 71.8 °F 61% 29.99 in 10.0 mi SW 11.5 mph 18.4 mph N/A   Clear
10:15 AM 88.0 °F 92.9 °F 69.8 °F 55% 30.00 in 10.0 mi WSW 13.8 mph 17.3 mph N/A   Scattered Clouds
10:35 AM 88.9 °F 93.0 °F 68.7 °F 51% 30.00 in 10.0 mi WSW 10.4 mph 19.6 mph N/A   Scattered Clouds
10:55 AM 88.9 °F 93.0 °F 68.7 °F 51% 30.01 in 10.0 mi WSW 12.7 mph 18.4 mph N/A   Mostly Cloudy
11:15 AM 89.8 °F 93.8 °F 68.0 °F 49% 30.01 in 10.0 mi SW 17.3 mph 20.7 mph N/A   Scattered Clouds
11:35 AM 90.9 °F 94.8 °F 68.2 °F 47% 30.01 in 10.0 mi SW 13.8 mph 18.4 mph N/A   Scattered Clouds
11:55 AM 91.0 °F 94.3 °F 67.1 °F 45% 30.00 in 10.0 mi WSW 15.0 mph 21.9 mph N/A   Scattered Clouds
12:15 PM 91.8 °F 94.2 °F 65.7 °F 42% 29.99 in 10.0 mi WSW 11.5 mph 21.9 mph N/A   Scattered Clouds
12:35 PM 91.9 °F 94.1 °F 65.5 °F 41% 30.00 in 10.0 mi WSW 15.0 mph 21.9 mph N/A   Mostly Cloudy
12:55 PM 91.6 °F 94.8 °F 66.6 °F 44% 29.98 in 10.0 mi WSW 15.0 mph 20.7 mph N/A   Mostly Cloudy
1:15 PM 93.0 °F 95.5 °F 65.3 °F 40% 29.98 in 10.0 mi WSW 13.8 mph 18.4 mph N/A   Mostly Cloudy
1:35 PM 92.7 °F 95.8 °F 66.2 °F 42% 29.97 in 10.0 mi WSW 11.5 mph 19.6 mph N/A   Scattered Clouds
1:55 PM 92.5 °F 95.4 °F 66.4 °F 42% 29.96 in 10.0 mi WSW 13.8 mph 19.6 mph N/A   Scattered Clouds
2:15 PM 93.0 °F 95.9 °F 66.2 °F 41% 29.95 in 10.0 mi WSW 15.0 mph 20.7 mph N/A   Mostly Cloudy
2:35 PM 93.7 °F 95.8 °F 64.8 °F 38% 29.94 in 10.0 mi SW 13.8 mph 18.4 mph N/A   Scattered Clouds
2:55 PM 92.5 °F 95.9 °F 66.9 °F 43% 29.94 in 10.0 mi West 16.1 mph 20.7 mph N/A   Clear
3:15 PM 90.7 °F 92.4 °F 64.9 °F 42% 29.93 in 10.0 mi West 11.5 mph 23.0 mph N/A   Scattered Clouds
3:35 PM 90.9 °F 93.5 °F 66.4 °F 44% 29.93 in 10.0 mi WSW 11.5 mph 17.3 mph N/A   Scattered Clouds
3:55 PM 91.4 °F 95.4 °F 68.0 °F 46% 29.92 in 10.0 mi WSW 11.5 mph 18.4 mph N/A   Scattered Clouds
4:15 PM 92.3 °F 96.5 °F 68.4 °F 45% 29.91 in 10.0 mi WSW 8.1 mph - N/A   Scattered Clouds
4:35 PM 91.6 °F 95.7 °F 68.4 °F 46% 29.91 in 10.0 mi SW 12.7 mph 18.4 mph N/A   Scattered Clouds
4:55 PM 91.6 °F 95.7 °F 68.0 °F 46% 29.91 in 10.0 mi SW 10.4 mph - N/A   Scattered Clouds
5:15 PM 90.9 °F 95.3 °F 68.5 °F 48% 29.90 in 10.0 mi SW 10.4 mph - N/A   Clear
5:35 PM 89.8 °F 94.6 °F 69.4 °F 51% 29.90 in 10.0 mi SW 11.5 mph - N/A   Clear
5:55 PM 89.8 °F 95.1 °F 69.8 °F 52% 29.90 in 10.0 mi SW 10.4 mph - N/A   Scattered Clouds
6:15 PM 89.2 °F 94.9 °F 70.7 °F 54% 29.90 in 10.0 mi WSW 6.9 mph - N/A   Clear
6:35 PM 89.2 °F 94.1 °F 69.3 °F 52% 29.91 in 10.0 mi SW 9.2 mph - N/A   Clear
6:55 PM 88.7 °F 93.0 °F 68.9 °F 52% 29.91 in 10.0 mi WSW 10.4 mph - N/A   Clear
7:15 PM 88.0 °F 92.9 °F 69.8 °F 55% 29.92 in 10.0 mi WSW 9.2 mph - N/A   Clear
7:35 PM 86.7 °F 92.1 °F 70.7 °F 59% 29.93 in 10.0 mi SW 6.9 mph - N/A   Clear
7:55 PM 86.0 °F 91.5 °F 71.1 °F 61% 29.93 in 10.0 mi SW 6.9 mph - N/A   Clear
8:15 PM 84.9 °F 91.4 °F 72.7 °F 67% 29.92 in 10.0 mi SSW 6.9 mph - N/A   Clear
8:35 PM 84.2 °F 90.9 °F 73.4 °F 70% 29.94 in 10.0 mi WSW 3.5 mph - N/A   Clear
8:55 PM 84.4 °F 90.6 °F 72.9 °F 68% 29.94 in 10.0 mi SW 5.8 mph - N/A   Clear
9:15 PM 84.0 °F 90.2 °F 72.7 °F 69% 29.94 in 10.0 mi SW 5.8 mph - N/A   Clear
9:35 PM 83.7 °F 89.4 °F 72.5 °F 69% 29.94 in 10.0 mi SW 5.8 mph - N/A   Clear
9:55 PM 83.3 °F 89.3 °F 73.2 °F 71% 29.94 in 10.0 mi SW 5.8 mph - N/A   Clear
10:15 PM 82.8 °F 89.2 °F 74.1 °F 75% 29.94 in 10.0 mi SW 6.9 mph - N/A   Clear
10:35 PM 82.8 °F 89.5 °F 74.5 °F 76% 29.94 in 10.0 mi SW 6.9 mph - N/A   Clear
10:55 PM 82.6 °F 89.4 °F 74.8 °F 77% 29.94 in 10.0 mi SW 4.6 mph - N/A   Scattered Clouds
11:15 PM 82.6 °F 89.7 °F 75.2 °F 78% 29.95 in 10.0 mi West 3.5 mph - N/A   Scattered Clouds
11:35 PM 82.4 °F 89.8 °F 75.7 °F 80% 29.95 in 10.0 mi Calm Calm - N/A   Mostly Cloudy
11:55 PM 81.9 °F 89.2 °F 76.3 °F 83% 29.95 in 10.0 mi NNW 3.5 mph - N/A   Mostly Cloudy